FW3322 Weather Reports


Display with metric or nautical units.
time (UTC)temp
F
wind
direction
speed
MPH
gust
MPH
rain 1hr
in
rain 24hr
in
rain mn
in
humidity
%
barometer
mb
20260506013058 47 350 4.0 11.0 0.00 0.14 0.14 89 1013.2
20260506011601 46 68 3.0 12.0 0.00 0.14 0.14 91 1013.0
20260506010048 46 30 3.0 11.0 0.00 0.14 0.14 91 1012.8
20260506004543 46 9 5.0 15.0 0.00 0.14 0.14 90 1012.7
20260506003042 46 32 4.0 16.0 0.00 0.14 0.14 89 1012.8
20260506001538 47 24 5.0 11.0 0.00 0.14 0.14 90 1012.6
20260506000035 47 27 8.0 14.0 0.00 0.14 0.14 89 1012.5
20260505234533 48 36 6.0 12.0 0.00 0.14 0.14 86 1012.5
20260505233030 48 36 7.0 20.0 0.00 0.14 0.14 84 1012.1
20260505231544 48 28 8.0 16.0 0.00 0.14 0.14 85 1012.0
20260505230027 48 337 8.0 21.0 0.00 0.14 0.14 84 1011.7
20260505224522 48 19 6.0 20.0 0.00 0.14 0.14 82 1011.7
20260505223021 48 17 10.0 18.0 0.00 0.14 0.14 81 1011.9
20260505221519 48 12 6.0 16.0 0.00 0.14 0.14 80 1011.3
20260505220022 48 11 8.0 20.0 0.00 0.14 0.14 80 1011.2
20260505214517 48 16 7.0 22.0 0.00 0.14 0.14 82 1011.4
20260505213022 49 34 10.0 22.0 0.00 0.14 0.14 78 1011.5
20260505211513 49 351 9.0 16.0 0.00 0.14 0.14 78 1011.3
20260505210013 49 18 15.0 27.0 0.00 0.14 0.14 76 1011.3
20260505204512 50 51 9.0 22.0 0.00 0.14 0.14 77 1011.3
20260505203011 50 34 11.0 23.0 0.00 0.14 0.14 77 1011.2
20260505201512 50 23 11.0 19.0 0.00 0.14 0.14 77 1011.2
20260505200003 50 38 12.0 22.0 0.00 0.14 0.14 77 1011.3
20260505194601 50 19 9.0 19.0 0.00 0.14 0.14 78 1011.3
20260505193058 50 346 9.0 25.0 0.00 0.14 0.14 76 1011.1
20260505191611 50 53 10.0 24.0 0.00 0.14 0.14 76 1011.0
20260505190057 51 355 12.0 22.0 0.00 0.14 0.14 74 1010.6
20260505184551 52 331 9.0 24.0 0.00 0.14 0.14 72 1010.5
20260505183049 52 20 13.0 25.0 0.00 0.14 0.14 71 1010.5
20260505181549 52 319 12.0 26.0 0.00 0.14 0.14 73 1010.5
20260505180050 52 9 8.0 20.0 0.00 0.14 0.14 74 1010.6
20260505174545 52 303 10.0 24.0 0.00 0.14 0.14 73 1010.5
20260505173041 53 23 14.0 30.0 0.00 0.14 0.14 72 1010.1
20260505171544 53 37 15.0 26.0 0.00 0.14 0.14 72 1009.6
20260505170050 53 16 9.0 26.0 0.00 0.14 0.14 75 1009.4
20260505164538 52 348 12.0 22.0 0.00 0.14 0.14 78 1009.4
20260505163036 52 82 7.0 19.0 0.00 0.14 0.14 81 1009.6
20260505161533 51 26 9.0 15.0 0.00 0.14 0.14 82 1010.0
20260505153030 51 348 8.0 16.0 0.01 0.14 0.14 86 1009.0
20260505151536 51 340 6.0 18.0 0.02 0.14 0.14 89 1009.1
20260505124503 0 0.0 0.0 0.00 0.12 0.12 1008.2
20260505123104 0 0.0 0.0 0.00 0.12 0.12 1007.5
20260505121615 0 0.0 0.0 0.00 0.12 0.12 1007.1
20260505120051 0 0.0 0.0 0.00 0.12 0.12 1006.5
20260505114545 0 0.0 0.0 0.00 0.12 0.12 1006.7
20260505113042 0 0.0 0.0 0.00 0.12 0.12 1006.5
20260505111541 0 0.0 0.0 0.00 0.12 0.12 1006.2
20260505101522 59 329 6.0 13.0 0.00 0.12 0.12 90 1006.2
20260505100022 60 22 11.0 16.0 0.00 0.12 0.12 93 1006.2
20260505094517 60 53 1.0 5.0 0.01 0.12 0.12 99 1005.7
20260505093026 61 38 0.0 1.0 0.02 0.12 0.12 99 1005.8
20260505091516 60 23 0.0 4.0 0.02 0.12 0.12 99 1005.5
20260505090015 60 338 4.0 12.0 0.02 0.12 0.12 99 1005.7
20260505084517 61 350 6.0 12.0 0.01 0.11 0.11 99 1006.0
20260505083013 61 337 0.0 1.0 0.00 0.10 0.10 99 1004.4
20260505081516 61 138 1.0 6.0 0.00 0.10 0.10 99 1003.8
20260505080011 61 144 1.0 8.0 0.00 0.10 0.10 99 1003.9
20260505074511 61 128 0.0 6.0 0.00 0.10 0.10 98 1003.3
20260505073010 61 151 2.0 7.0 0.02 0.10 0.10 98 1003.2
20260505071508 61 174 5.0 9.0 0.08 0.10 0.10 98 1003.3
20260505070007 61 146 11.0 20.0 0.10 0.10 0.10 97 1002.4
20260505064504 62 165 10.0 18.0 0.10 0.10 0.10 95 1003.4
20260505063059 63 180 4.0 13.0 0.08 0.08 0.08 92 1005.3
20260505061557 64 156 9.0 25.0 0.02 0.02 0.02 89 1005.4
20260505060050 67 177 5.0 13.0 0.00 0.00 0.00 81 1005.3
20260505054547 67 155 2.0 7.0 0.00 0.00 0.00 78 1004.6
20260505053048 68 198 1.0 7.0 0.00 0.00 0.00 77 1004.2
20260505051543 68 151 4.0 7.0 0.00 0.00 0.00 77 1003.9
20260505041538 68 143 3.0 6.0 0.00 0.00 0.00 76 1004.5
20260505040037 68 186 4.0 7.0 0.00 0.00 0.00 76 1004.2
20260505034536 68 165 3.0 6.0 0.00 0.00 0.00 76 1004.9
20260505033100 68 146 1.0 5.0 0.00 0.00 0.00 76 1005.0
20260505031538 68 163 1.0 6.0 0.00 0.00 0.00 76 1004.8
20260505030034 69 145 1.0 3.0 0.00 0.00 0.00 75 1004.8
20260505024534 69 146 0.0 4.0 0.00 0.00 0.00 75 1004.9
20260505023037 69 146 1.0 5.0 0.00 0.00 0.00 75 1004.9
20260505021532 70 142 1.0 3.0 0.00 0.00 0.00 75 1004.7
20260505020031 70 162 1.0 4.0 0.00 0.00 0.00 73 1004.4
20260505014533 71 138 0.0 3.0 0.00 0.00 0.00 72 1004.4